« Back
NWS Peachtree City, Ga » Text Product » GA Regional Weather Roundup


Printer-friendly Version
Current Version              Previous Versions:   1  2  3  4  5  6  7  8  9  

Regional Weather Roundup

630
ASUS42 KFFC 301803
RWRGA
WEATHER ROUNDUP FOR GEORGIA
NATIONAL WEATHER SERVICE PEACHTREE CITY GA
200 PM EDT TUE JUN 30 2015

NOTE: "FAIR" INDICATES FEW OR NO CLOUDS BELOW 12,000 FEET WITH NO
SIGNIFICANT WEATHER AND/OR OBSTRUCTIONS TO VISIBILITY.

* = USE WITH CAUTION. THE STATIONS MARKED WITH AN ASTERISK MAY NOT
REPORT WEATHER SUCH AS PRECIPITATION, FOG, OR THUNDER AND ARE NOT
QUALITY CONTROLLED BY NWS.

THE REMARK "TC" DENOTES TEMPERATURE READING IN DEGREES CELSIUS.

GAZ001>058-301900-
NORTH GEORGIA

CITY           SKY/WX    TMP DP  RH WIND       PRES   REMARKS
ATLANTA        PTSUNNY   82  68  62 W13       30.00F
6HR MIN TEMP:  72; 6HR MAX TEMP:  83; 6HR PCP:  0.07;

ATHENS         CLOUDY    85  66  53 SW5       29.96F
6HR MIN TEMP:  73; 6HR MAX TEMP:  91;

CHAMBLEE       PTSUNNY   86  66  51 W14G22    29.98F
6HR MIN TEMP:  73; 6HR MAX TEMP:  87; 6HR PCP: TRACE;

PEACHTREE CITY PTSUNNY   84  66  54 W9        30.01F
6HR MIN TEMP:  72; 6HR MAX TEMP:  84;

ROME           CLOUDY    75  67  76 W8        29.96F
6HR MIN TEMP:  71; 6HR MAX TEMP:  81; 6HR PCP:  0.10;

WEST ATLANTA   PTSUNNY   83  66  56 W13G23    29.99F
6HR MIN TEMP:  71; 6HR MAX TEMP:  83; 6HR PCP:  0.03;

GAINESVILLE    LGT RAIN  76  71  85 SW5       30.00F
6HR MIN TEMP:  75; 6HR MAX TEMP:  84; 6HR PCP:  0.13;

CARTERSVILLE   CLOUDY    81  69  67 S7        29.97F
6HR MIN TEMP:  74; 6HR MAX TEMP:  81; 6HR PCP: TRACE;



CITY           SKY/WX    TMP DP  RH WIND       PRES   REMARKS
DALTON*        CLOUDY    77  64  65 SW8       29.97F
LAWRENCEVILLE* PTSUNNY   75  66  73 SW12      29.97F
MARIETTA       MOSUNNY   83  66  56 W13       29.99F
BLAIRSVILLE*     N/A     69  58  69 CALM      30.04F
$$

GAZ059>098-102>109-301900-
CENTRAL GEORGIA

CITY           SKY/WX    TMP DP  RH WIND       PRES   REMARKS
AUGUSTA-BUSH   MOSUNNY   94  67  41 S8        29.94F HX  97
6HR MIN TEMP:  74; 6HR MAX TEMP:  94;

AUGUSTA-DANIEL MOSUNNY   91  65  41 VRB5G20   29.96F HX  93
6HR MIN TEMP:  75; 6HR MAX TEMP:  92;

COLUMBUS       PTSUNNY   87  71  58 NW12      30.00F HX  93
6HR MIN TEMP:  72; 6HR MAX TEMP:  87; 6HR PCP:  0.09;

MACON          MOSUNNY   85  69  58 NW14G21   29.99F THUNDER
6HR MIN TEMP:  74; 6HR MAX TEMP:  89;

ROBINS AFB     MOSUNNY   86  71  59 NW14      29.98S HX  91


CITY           SKY/WX    TMP DP  RH WIND       PRES   REMARKS
LAGRANGE*      PTSUNNY   85  73  68 W12       30.03F HX  92
SYLVANIA*      MOSUNNY   92  71  50 SW6       29.98F HX  98
MILLEDGEVILLE* MOSUNNY   90  68  48 W8G17     29.97F HX  93
$$

GAZ099>101-110>166-301900-
SOUTH GEORGIA

CITY           SKY/WX    TMP DP  RH WIND       PRES   REMARKS
SAVANNAH       PTSUNNY   91  69  48 W9G16     29.99F HX  96
6HR MIN TEMP:  75; 6HR MAX TEMP:  91;

VALDOSTA       LGT RAIN  71  69  93 S7        30.08F
6HR MIN TEMP:  71; 6HR MAX TEMP:  90; 6HR PCP:  0.19;

ALMA           CLOUDY    87  73  62 SW6       30.01F HX  94
6HR MIN TEMP:  73; 6HR MAX TEMP:  89;

ST SIMONS      MOSUNNY   89  71  55 SW10      30.00F HX  95
6HR MIN TEMP:  76; 6HR MAX TEMP:  89;

FT STEWART     PTSUNNY   89  70  53 W6        29.97F HX  94
ALBANY         PTSUNNY   86  75  69 S10       30.04S HX  95
HUNTER AFB     PTSUNNY   90  74  59 VRB7      29.97F HX  98
MOODY AFB      LGT RAIN  72  67  85 SE6       30.04S
BRUNSWICK      MOSUNNY   90  72  55 SW7       30.01F HX  96


CITY           SKY/WX    TMP DP  RH WIND       PRES   REMARKS
BAINBRIDGE*    MOSUNNY   81  73  78 SW13G18   30.05R
MOULTRIE*      PTSUNNY   73  72  94 CALM      30.06S
VIDALIA*       MOSUNNY   88  68  51 W5        29.99F HX  91
WAYCROSS*      CLOUDY    77  76  94 SE5       30.01F THUNDER
DOUGLAS*       CLOUDY    82  75  78 S8        30.05S
$$



USA.gov is the U.S. government's official web portal to all federal, state and local government web resources and services.